Flag for U.S.A. Weather past 2 weeks in Winston-Salem, North Carolina, U.S.A.

Now
72 °F

Fog.


Feels Like: 69 °F
Forecast: 68 / 89 °F
Wind: No wind

Location: Smith Reynolds Airport

Current Time: Jul 26, 2014 at 7:52:53 AM

Latest Report: Jul 26, 2014 at 6:54 AM


Visibility: 6 mi

Pressure: 30.01 "Hg

Humidity: 91%

Dew point: 69 °F

Location of Winston-SalemLocation

Historic Weather in Winston-Salem — Graph

°F

Winston-Salem temperature yesterday

Maximum temperature yesterday: 82 °F (at 4:54 PM)
Minimum temperature yesterday: 66 °F (at 4:54 AM)
Average temperature yesterday: 74 °F

Past Weeks' High & Low Weather Summary

 TemperatureHumidityPressure
High93 °F (Jul 14, 3:54 PM)94% (Jul 19, 11:54 PM)30.22 "Hg (Jul 19, 11:54 PM)
Low59 °F (Jul 17, 6:54 AM)26% (Jul 16, 6:54 PM)29.75 "Hg (Jul 15, 4:54 PM)
Average75 °F70%30.04 "Hg
* Reported Jul 11 6:54 AM — Jul 26 6:54 AM, Winston-Salem, Weather by CustomWeather, © 2014

Note: Actual official high and low records may vary slightly from our data, if they occured in-between our weather recording intervals... More about our weather records

Advertising

Winston-Salem weather history for previous 24 hours

 ConditionsComfort  
Time TempWeatherWind HumidityBarometerVisibility
6:54 AM
Jul 26
72 °FFog.No wind91%30.01 "Hg6 mi
5:54 AM73 °FLow clouds.3 mph90%30.01 "Hg7 mi
4:54 AM73 °FPassing clouds.5 mph90%29.99 "Hg9 mi
3:54 AM72 °FMostly cloudy.3 mph87%29.99 "Hg10 mi
2:54 AM72 °FPassing clouds.No wind87%30.01 "Hg10 mi
1:54 AM73 °FMostly cloudy.5 mph81%30.02 "Hg10 mi
12:54 AM73 °FOvercast.3 mph81%30.03 "Hg10 mi
11:54 PM
Jul 25
73 °FPassing clouds.3 mph81%30.03 "Hg10 mi
10:54 PM73 °FClear.No wind81%30.03 "Hg10 mi
9:54 PM74 °FPassing clouds.3 mph82%30.02 "Hg10 mi
8:54 PM76 °FSunny.3 mph74%30.01 "Hg10 mi
7:54 PM79 °FPassing clouds.5 mph65%30.01 "Hg10 mi
6:54 PM81 °FScattered clouds.6 mph60%30.00 "Hg10 mi
5:54 PM81 °FScattered clouds.8 mph58%30.00 "Hg10 mi
4:54 PM82 °FSunny.5 mph56%29.99 "Hg10 mi
3:54 PM81 °FBroken clouds.5 mph56%29.99 "Hg10 mi
2:54 PM79 °FPartly sunny.3 mph60%30.02 "Hg10 mi
1:54 PM78 °FCloudy.3 mph62%30.04 "Hg10 mi
12:54 PM77 °FMore clouds than sun.5 mph64%30.06 "Hg10 mi
12:03 PM74 °FPartly sunny.5 mph69%30.11 "Hg10 mi
11:54 AM75 °FScattered clouds.3 mph66%30.08 "Hg10 mi
10:54 AM73 °FOvercast.6 mph74%30.07 "Hg10 mi
10:01 AM72 °FOvercast.3 mph76%30.10 "Hg10 mi
8:54 AM71 °FPartly sunny.5 mph84%30.06 "Hg10 mi
7:54 AM68 °FScattered clouds.3 mph90%30.06 "Hg10 mi
Weather by CustomWeather, © 2014

See weather overviewHow to use our weather pages